Location: Bonnesvalyn
(49.1218°N, 3.3177°E)
Time: 22:54:52
(UTC+00:00)

Cosmos 1602 Rocket - Pass Details

Date: 09 February 2023
Orbit: 603 x 630 km, 82.5° (Epoch: 01 April)

Event Time Altitude Azimuth Distance (km) Brightness Sun altitude
Rises 18:48:13 0° 186° (S) 2,845 7.1 -18.7°
Reaches altitude 10° 18:50:25 10° 186° (S) 1,946 6.2 -19.0°
Maximum altitude 18:54:43 84° 101° (E) 614 3.4 -19.7°
Drops below altitude 10° 18:59:04 10° 11° (N) 1,965 6.0 -20.4°
Sets 19:01:18 0° 11° (N) 2,876 6.9 -20.8°
